Location: *
(50.6089°N, 2.2719°E)
Time: 18:57:28
(UTC+00:00)

STARLINK-56 - Pass Details

Date: 18 October 2019
Orbit: 548 x 551 km, 53.0° (Epoch: 17 November)

Event Time Altitude Azimuth Distance (km) Brightness Sun altitude
Rises 18:49:19 0° 269° (W) 2,717 8.8 -19.1°
Reaches altitude 10° 18:51:34 10° 273° (W) 1,825 7.5 -19.4°
Maximum altitude 18:55:41 62° 355° (N) 622 3.8 -20.1°
Enters shadow 18:56:36 48° 49° (NE) 730 3.9 -20.2°
